CAPE
0 0 0 0 0 0 0 0 0 0 0 0 0 0 0 0 0 0 0 0 0 2 8 137 269 344 104 36 5 0 0 0 0 0 0 0 0 0 0 0 0 0 0 2 11 219 510 615 646
0 0 0 0 0 0 0 0 0 0 0 0 0 0 0 0 0 0 0 0 0 0 2 16 12 11 3 1 0 0 0 0 0 0 0 0 0 0 0 0 0 0 0 0 0 0 49 76 91
0 0 0 0 0 0 0 0 0 0 0 0 0 0 0 0 0 0 0 0 0 0 1 1 0 1 0 0 0 0 0 0 0 0 0 0 0 0 0 0 0 0 0 0 0 0 0 0 0
0 0 0 0 0 0 0 0 0 0 0 0 0 0 0 0 0 0 0 0 1 2 1 0 0 0 0 0 0 0 0 0 0 0 0 0 0 0 0 0 0 0 0 0 0 0 0 0 0
0 0 0 0 0 0 0 0 0 0 0 0 0 0 0 0 0 0 0 0 0 2 2 3 0 0 0 0 0 0 0 0 0 0 0 0 0 0 0 0 0 0 0 0 0 0 0 0 0
0 0 0 0 0 0 0 0 0 0 0 0 0 0 0 0 0 0 0 0 0 0 0 0 0 0 0 0 0 0 0 0 0 0 0 0 0 0 0 0 0 0 0 1 2 3 3 2 1
0 0 0 0 0 0 0 0 0 0 0 0 0 0 0 0 0 0 0 0 0 0 0 0 0 0 0 0 0 0 0 0 0 0 0 0 0 0 0 0 0 0 0 1 2 2 5 1 5
0 0 0 0 0 0 0 0 0 0 0 0 0 0 0 0 0 0 0 0 0 0 0 0 0 0 0 0 0 0 0 0 0 0 0 0 0 0 0 0 0 0 0 1 4 1 3 2 2
0 0 0 0 0 0 0 0 0 0 0 0 0 0 0 0 0 0 0 0 0 0 0 0 0 0 0 0 0 0 0 0 0 0 0 0 0 0 0 0 0 0 0 0 0 6 2 0 1
0 0 0 0 0 0 0 0 0 0 0 0 0 0 0 0 0 0 0 0 0 0 0 0 0 0 0 0 0 0 0 0 0 0 0 0 0 0 0 0 0 0 0 0 0 0 0 0 1
0 0 0 0 0 0 0 0 0 0 0 0 0 0 0 0 0 0 0 0 0 0 0 0 0 0 0 0 0 0 0 0 0 0 0 0 0 0 1 3 5 4 0 0 0 0 0 0 3
0 0 0 0 0 0 0 0 0 0 0 0 0 0 0 0 0 0 0 0 0 0 0 0 0 0 0 0 0 0 0 0 0 0 0 0 0 1 3 5 6 3 0 0 0 1 11 16 14
0 0 0 0 0 0 0 0 0 0 0 0 0 0 0 0 0 0 0 0 0 0 0 0 0 0 0 0 0 0 0 0 0 0 0 0 0 0 1 5 4 0 0 0 2 9 1 14 13
0 0 0 0 0 0 0 0 0 0 0 0 0 0 0 0 0 0 0 0 0 0 0 0 0 0 0 0 0 0 0 0 0 0 0 0 1 3 5 3 1 0 0 0 0 16 9 18 17
0 0 0 0 0 0 0 0 0 0 0 0 0 0 0 0 0 0 0 0 0 0 0 0 0 0 0 0 0 0 0 0 0 0 0 0 2 6 4 2 0 0 0 0 9 21 3 2 2
0 0 0 0 0 0 0 0 0 0 0 0 0 0 0 0 0 0 0 0 0 0 0 0 0 0 0 0 0 0 0 0 0 0 0 2 4 3 1 0 0 0 0 2 7 5 1 1 1
0 0 0 0 0 0 0 0 0 0 0 0 0 0 0 0 0 0 0 0 0 0 0 0 0 0 0 0 0 0 0 0 0 0 1 1 0 0 1 0 0 0 0 7 1 3 3 1 0
0 0 0 0 0 0 0 0 0 0 0 0 0 0 0 0 0 0 0 0 0 0 0 0 0 0 0 0 0 0 0 0 0 0 2 0 0 0 0 0 0 5 4 3 1 0 3 1 1
0 0 0 0 0 0 0 0 0 0 0 0 0 0 0 0 0 0 0 0 0 0 0 0 0 0 0 0 0 0 0 0 0 0 0 0 0 0 0 0 0 6 3 1 1 0 4 1 3
0 0 0 0 0 0 0 0 0 0 0 0 0 0 0 0 0 0 0 0 0 0 0 0 0 0 0 0 0 0 0 0 0 0 0 0 0 0 0 0 4 6 1 1 0 2 1 3 1
0 0 0 0 0 0 0 0 0 0 0 0 0 0 0 0 0 0 0 0 0 0 0 0 0 0 0 0 0 0 0 0 0 0 0 0 0 0 0 0 4 6 1 0 0 0 1 3 0
0 0 0 0 0 0 0 0 0 0 0 0 0 0 0 0 0 0 0 0 0 0 0 0 0 0 0 0 0 0 0 0 0 0 0 0 0 0 0 0 0 7 2 0 0 0 0 0 0
0 0 0 0 0 0 0 0 0 0 0 0 0 0 0 0 0 0 0 0 0 0 0 0 0 0 0 0 0 0 0 0 0 0 0 0 0 0 0 0 0 1 5 0 0 0 0 0 0
0 0 0 0 0 0 0 0 0 0 0 0 0 0 0 0 0 0 0 0 0 0 0 0 0 0 0 0 0 0 0 0 0 0 0 0 0 0 0 0 4 6 4 6 1 0 0 0 0
0 0 0 0 0 0 0 0 0 0 0 0 0 0 0 0 0 0 0 0 0 0 0 0 0 0 0 0 0 0 0 1 0 0 0 0 0 0 0 2 1 3 3 3 5 2 0 0 0
0 0 0 0 0 0 0 0 0 0 0 0 0 0 0 0 0 0 0 0 0 0 0 0 0 0 0 0 0 0 0 1 1 1 0 0 0 2 2 4 0 1 0 1 3 3 2 0 0
0 0 0 0 0 0 0 0 0 0 0 0 0 0 0 0 0 0 0 0 0 0 0 0 0 0 0 0 0 0 0 0 1 1 0 3 2 4 1 12 4 0 1 0 1 2 3 0 0
0 0 0 0 0 0 0 0 0 0 0 0 0 0 0 0 0 0 0 0 0 0 0 0 0 0 0 0 0 0 0 0 0 1 0 0 0 0 3 4 2 1 0 1 2 4 2 0 0
0 0 0 0 0 0 0 0 0 0 0 0 0 0 0 0 0 0 0 0 0 0 0 0 0 0 0 0 0 0 0 0 0 0 1 1 0 0 0 0 3 0 0 0 2 2 2 0 0
0 0 0 0 0 0 0 0 0 0 0 0 0 0 0 0 0 0 0 0 0 0 0 0 0 0 0 0 0 0 0 0 0 0 0 0 0 0 0 0 1 0 0 0 0 0 0 0 1
CIN
-0 -0 -0 -0 -0 -0 -0 -0 -0 -0 -0 -0 -0 -0 -0 -0 -0 -0 -0 -0 -0 -185 -353 -126 -82 -62 -163 -282 -326 -0 -0 -0 -0 -0 -0 -0 -0 -0 -0 -0 -0 -0 -0 -0 -92 -54 -0 -0 -0
-0 -0 -0 -0 -0 -0 -0 -0 -0 -0 -0 -0 -0 -0 -0 -0 -0 -0 -0 -0 -0 -0 -0 -275 -202 -327 -207 -4 -0 -0 -0 -0 -0 -0 -0 -0 -0 -0 -0 -0 -0 -0 -0 -0 -0 -0 -64 -97 -55
-0 -0 -0 -0 -0 -0 -0 -0 -0 -0 -0 -0 -0 -0 -0 -0 -0 -0 -0 -0 -0 -0 -0 -3 -3 -1 -1 -0 -0 -0 -0 -0 -0 -0 -0 -0 -0 -0 -0 -0 -0 -0 -0 -0 -0 -0 -0 -2 -0
-0 -0 -0 -0 -0 -0 -0 -0 -0 -0 -0 -0 -0 -0 -0 -0 -0 -0 -0 -0 -1 -0 -0 -0 -0 -0 -0 -0 -0 -0 -0 -0 -0 -0 -0 -0 -0 -0 -0 -0 -0 -0 -0 -0 -0 -0 -0 -0 -0
-0 -0 -0 -0 -0 -0 -0 -0 -0 -0 -0 -0 -0 -0 -0 -0 -0 -0 -0 -0 -0 -0 -0 -0 -0 -0 -0 -0 -0 -0 -0 -0 -0 -0 -0 -0 -0 -0 -0 -0 -0 -0 -0 -0 -0 -0 -0 -0 -0
-0 -0 -0 -0 -0 -0 -0 -0 -0 -0 -0 -0 -0 -0 -0 -0 -0 -0 -0 -0 -0 -0 -0 -0 -0 -0 -0 -0 -0 -0 -0 -0 -0 -0 -0 -0 -0 -0 -0 -0 -0 -0 -0 -0 -0 -0 -0 -0 -0
-0 -0 -0 -0 -0 -0 -0 -0 -0 -0 -0 -0 -0 -0 -0 -0 -0 -0 -0 -0 -0 -0 -0 -0 -0 -0 -0 -0 -0 -0 -0 -0 -0 -0 -0 -0 -0 -0 -0 -0 -0 -0 -0 -0 -0 -0 -0 -0 -0
-0 -0 -0 -0 -0 -0 -0 -0 -0 -0 -0 -0 -0 -0 -0 -0 -0 -0 -0 -0 -0 -0 -0 -0 -0 -0 -0 -0 -0 -0 -0 -0 -0 -0 -0 -0 -0 -0 -0 -0 -0 -0 -0 -0 -1 -0 -0 -0 -0
-0 -0 -0 -0 -0 -0 -0 -0 -0 -0 -0 -0 -0 -0 -0 -0 -0 -0 -0 -0 -0 -0 -0 -0 -0 -0 -0 -0 -0 -0 -0 -0 -0 -0 -0 -0 -0 -0 -0 -0 -0 -0 -0 -0 -0 -0 -0 -0 -1
-0 -0 -0 -0 -0 -0 -0 -0 -0 -0 -0 -0 -0 -0 -0 -0 -0 -0 -0 -0 -0 -0 -0 -0 -0 -0 -0 -0 -0 -0 -0 -0 -0 -0 -0 -0 -0 -0 -0 -0 -0 -0 -0 -0 -0 -0 -0 -0 -1
-0 -0 -0 -0 -0 -0 -0 -0 -0 -0 -0 -0 -0 -0 -0 -0 -0 -0 -0 -0 -0 -0 -0 -0 -0 -0 -0 -0 -0 -0 -0 -0 -0 -0 -0 -0 -0 -0 -1 -0 -0 -1 -0 -0 -0 -0 -1 -0 -1
-0 -0 -0 -0 -0 -0 -0 -0 -0 -0 -0 -0 -0 -0 -0 -0 -0 -0 -0 -0 -0 -0 -0 -0 -0 -0 -0 -0 -0 -0 -0 -0 -0 -0 -0 -0 -0 -0 -0 -0 -0 -0 -0 -0 -0 -0 -0 -0 -0
-0 -0 -0 -0 -0 -0 -0 -0 -0 -0 -0 -0 -0 -0 -0 -0 -0 -0 -0 -0 -0 -0 -0 -0 -0 -0 -0 -0 -0 -0 -0 -0 -0 -0 -0 -0 -0 -1 -0 -0 -0 -0 -0 -0 -0 -0 -0 -0 -0
-0 -0 -0 -0 -0 -0 -0 -0 -0 -0 -0 -0 -0 -0 -0 -0 -0 -0 -0 -0 -0 -0 -0 -0 -0 -0 -0 -0 -0 -0 -0 -0 -0 -0 -0 -0 -0 -1 -1 -0 -0 -0 -0 -0 -0 -0 -2 -0 -0
-0 -0 -0 -0 -0 -0 -0 -0 -0 -0 -0 -0 -0 -0 -0 -0 -0 -0 -0 -0 -0 -0 -0 -0 -0 -0 -0 -0 -0 -0 -0 -0 -0 -0 -0 -0 -0 -0 -0 -0 -0 -0 -0 -0 -0 -0 -8 -3 -0
-0 -0 -0 -0 -0 -0 -0 -0 -0 -0 -0 -0 -0 -0 -0 -0 -0 -0 -0 -0 -0 -0 -0 -0 -0 -0 -0 -0 -0 -0 -0 -0 -0 -0 -0 -0 -0 -0 -0 -0 -0 -0 -0 -0 -0 -0 -1 -0 -0
-0 -0 -0 -0 -0 -0 -0 -0 -0 -0 -0 -0 -0 -0 -0 -0 -0 -0 -0 -0 -0 -0 -0 -0 -0 -0 -0 -0 -0 -0 -0 -0 -0 -0 -0 -0 -0 -0 -0 -0 -0 -0 -0 -1 -2 -0 -0 -0 -0
-0 -0 -0 -0 -0 -0 -0 -0 -0 -0 -0 -0 -0 -0 -0 -0 -0 -0 -0 -0 -0 -0 -0 -0 -0 -0 -0 -0 -0 -0 -0 -0 -0 -0 -0 -0 -0 -0 -0 -0 -0 -0 -0 -0 -0 -0 -0 -0 -0
-0 -0 -0 -0 -0 -0 -0 -0 -0 -0 -0 -0 -0 -0 -0 -0 -0 -0 -0 -0 -0 -0 -0 -0 -0 -0 -0 -0 -0 -0 -0 -0 -0 -0 -0 -0 -0 -0 -0 -0 -0 -1 -0 -0 -0 -0 -0 -0 -1
-0 -0 -0 -0 -0 -0 -0 -0 -0 -0 -0 -0 -0 -0 -0 -0 -0 -0 -0 -0 -0 -0 -0 -0 -0 -0 -0 -0 -0 -0 -0 -0 -0 -0 -0 -0 -0 -0 -0 -0 -13 -16 -0 -0 -0 -0 -0 -0 -13
-0 -0 -0 -0 -0 -0 -0 -0 -0 -0 -0 -0 -0 -0 -0 -0 -0 -0 -0 -0 -0 -0 -0 -0 -0 -0 -0 -0 -0 -0 -0 -0 -0 -0 -0 -0 -0 -0 -0 -0 -7 -9 -19 -0 -0 -0 -0 -0 -0
-0 -0 -0 -0 -0 -0 -0 -0 -0 -0 -0 -0 -0 -0 -0 -0 -0 -0 -0 -0 -0 -0 -0 -0 -0 -0 -0 -0 -0 -0 -0 -0 -0 -0 -0 -0 -0 -0 -0 -0 -0 -0 -14 -0 -0 -0 -0 -0 -0
-0 -0 -0 -0 -0 -0 -0 -0 -0 -0 -0 -0 -0 -0 -0 -0 -0 -0 -0 -0 -0 -0 -0 -0 -0 -0 -0 -0 -0 -0 -0 -0 -0 -0 -0 -0 -0 -0 -0 -2 -1 -0 -0 -0 -0 -0 -0 -0 -0
-0 -0 -0 -0 -0 -0 -0 -0 -0 -0 -0 -0 -0 -0 -0 -0 -0 -0 -0 -0 -0 -0 -0 -0 -0 -0 -0 -0 -0 -0 -0 -0 -0 -0 -0 -0 -0 -0 -0 -1 -0 -0 -0 -0 -3 -0 -0 -0 -0
-0 -0 -0 -0 -0 -0 -0 -0 -0 -0 -0 -0 -0 -0 -0 -0 -0 -0 -0 -0 -0 -0 -0 -0 -0 -0 -0 -0 -0 -0 -0 -0 -0 -0 -0 -0 -0 -0 -0 -0 -2 -3 -0 -0 -0 -0 -0 -0 -0
-0 -0 -0 -0 -0 -0 -0 -0 -0 -0 -0 -0 -0 -0 -0 -0 -0 -0 -0 -0 -0 -0 -0 -0 -0 -0 -0 -0 -0 -0 -0 -0 -0 -0 -0 -0 -0 -0 -0 -0 -0 -1 -0 -0 -0 -0 -0 -0 -0
-0 -0 -0 -0 -0 -0 -0 -0 -0 -0 -0 -0 -0 -0 -0 -0 -0 -0 -0 -0 -0 -0 -0 -0 -0 -0 -0 -0 -0 -0 -0 -0 -0 -0 -0 -1 -5 -3 -0 -0 -4 -0 -6 -0 -0 -0 -0 -0 -0
-0 -0 -0 -0 -0 -0 -0 -0 -0 -0 -0 -0 -0 -0 -0 -0 -0 -0 -0 -0 -0 -0 -0 -0 -0 -0 -0 -0 -0 -0 -0 -0 -0 -0 -0 -1 -0 -0 -3 -2 -4 -4 -0 -2 -0 -0 -0 -0 -0
-0 -0 -0 -0 -0 -0 -0 -0 -0 -0 -0 -0 -0 -0 -0 -0 -0 -0 -0 -0 -0 -0 -0 -0 -0 -0 -0 -0 -0 -0 -0 -0 -0 -0 -0 -0 -0 -0 -0 -2 -0 -2 -0 -0 -0 -0 -0 -0 -0
-0 -0 -0 -0 -0 -0 -0 -0 -0 -0 -0 -0 -0 -0 -0 -0 -0 -0 -0 -0 -0 -0 -0 -0 -0 -0 -0 -0 -0 -0 -0 -0 -0 -0 -0 -0 -0 -0 -0 -0 -4 -9 -0 -0 -0 -10 -0 -0 -0
Wind_Speed
19 18 16 16 17 18 18 16 15 9 10 11 10 11 12 13 11 11 15 11 11 12 12 12 11 12 11 11 11 11 12 13 14 15 17 18 19 21 22 23 24 24 24 23 22 23 24 25 23
18 17 16 16 18 19 15 15 11 11 11 9 10 11 11 13 14 14 14 10 10 11 11 10 9 10 11 11 10 11 13 14 15 17 18 19 20 22 23 24 24 25 24 24 25 24 24 26 25
17 17 17 16 17 17 16 13 14 14 12 9 10 12 13 14 14 15 15 10 11 11 10 9 9 10 10 10 11 12 14 15 16 18 19 20 21 22 23 24 25 26 26 26 26 26 26 26 26
18 16 16 18 18 18 14 12 13 12 12 10 12 13 13 15 15 16 12 10 11 10 9 9 9 9 10 10 11 13 14 16 18 19 20 21 22 23 24 25 26 26 26 27 27 28 28 28 28
17 17 18 18 18 17 17 18 15 13 12 11 11 14 15 15 15 14 11 10 10 9 9 8 9 9 10 10 11 13 15 17 19 20 20 21 22 23 24 25 26 27 28 29 29 29 29 30 30
14 20 19 23 18 16 18 16 14 13 12 12 14 15 15 16 14 12 11 10 10 9 9 9 9 9 10 10 12 14 16 18 19 21 21 21 22 23 24 25 27 28 28 28 29 30 31 30 29
18 17 22 20 19 18 16 14 14 13 12 15 15 16 15 14 13 12 11 10 9 9 9 9 9 9 10 11 13 15 17 18 20 22 21 21 21 22 23 24 25 27 27 29 29 29 29 29 29
18 18 19 23 22 20 15 14 14 14 15 13 15 16 14 15 12 12 10 9 9 8 8 8 8 8 9 11 13 15 17 19 20 20 19 18 19 20 20 21 22 25 27 28 28 27 27 29 29
19 19 20 22 20 18 14 14 15 15 15 13 16 17 17 14 11 10 9 8 7 7 6 7 7 8 9 11 13 15 17 18 17 17 18 19 20 21 21 22 23 23 25 24 23 25 25 25 24
20 18 20 19 18 17 16 16 16 14 15 18 17 13 16 12 9 8 6 5 5 6 6 5 6 7 10 11 13 15 17 18 17 18 20 21 20 21 21 21 21 22 21 18 18 17 21 21 23
17 18 22 20 20 19 19 18 17 16 21 20 19 18 13 11 7 6 4 5 5 6 6 5 5 6 9 10 13 15 17 18 18 19 19 20 20 21 22 20 20 20 19 21 20 19 19 20 21
19 22 20 20 20 19 18 19 19 18 20 23 22 20 16 11 5 4 4 5 5 5 6 5 4 6 9 10 13 16 17 18 19 19 19 19 20 20 22 19 19 19 18 19 20 19 18 17 16
21 20 17 22 22 22 22 23 23 28 24 26 24 23 20 13 8 6 3 4 4 5 6 5 4 5 8 10 14 16 17 18 20 20 18 18 19 20 21 20 18 17 16 18 19 19 19 20 20
18 22 23 23 23 21 23 23 22 19 16 19 22 23 20 18 16 13 5 2 2 5 5 4 3 5 8 11 15 16 17 19 20 19 19 18 18 19 19 19 17 16 16 18 19 18 19 22 24
18 22 22 21 20 20 20 26 24 23 22 24 25 24 22 21 20 16 12 3 1 4 3 4 4 5 7 11 14 17 18 19 19 19 19 18 18 18 18 16 15 15 16 18 19 21 21 23 24
18 22 23 19 19 20 19 23 21 17 19 22 25 25 24 26 28 28 24 10 4 1 2 3 4 5 7 11 15 17 18 19 19 19 19 18 18 18 17 15 15 16 17 18 20 20 21 24 25
18 25 25 23 19 19 20 24 20 18 26 30 29 29 29 32 32 31 30 15 6 2 0 2 4 5 7 10 14 17 18 19 19 19 19 18 18 18 17 17 16 17 20 20 21 21 21 23 24
25 28 24 22 20 22 25 34 33 30 29 32 33 32 30 29 27 27 27 20 9 4 2 3 4 6 7 10 14 16 17 18 19 19 19 18 18 18 18 17 16 17 20 20 21 22 22 25 26
22 23 25 23 22 26 27 33 34 32 28 26 27 28 26 25 25 25 23 18 11 6 4 4 4 6 7 10 14 16 16 17 19 19 19 18 18 18 18 18 18 19 19 19 19 21 23 25 24
25 25 26 23 22 25 30 36 31 24 19 20 23 23 24 24 24 23 21 17 12 7 6 6 6 7 9 11 13 15 15 17 18 18 17 17 17 17 17 18 18 18 19 18 19 20 21 22 22
31 32 29 28 27 26 30 30 22 18 15 19 21 22 22 24 25 23 20 17 11 8 7 6 8 10 12 14 14 15 15 16 16 17 16 16 15 16 17 17 17 17 17 17 17 18 19 19 21
31 27 27 27 25 27 24 27 24 23 18 21 23 24 23 24 23 21 18 15 12 9 8 8 10 12 14 14 15 15 16 16 16 16 15 14 14 15 16 16 15 15 15 15 14 15 15 17 17
25 20 20 22 24 26 25 26 22 20 22 26 26 25 24 23 23 21 17 14 12 10 10 10 12 14 16 16 15 16 17 16 15 15 14 13 13 13 15 15 14 14 13 13 14 14 15 15 15
15 18 19 21 24 30 26 26 24 23 25 26 25 24 23 23 22 20 17 14 11 11 12 13 15 17 17 17 16 16 17 16 14 14 13 12 12 12 12 13 12 12 12 12 12 13 13 12 13
20 18 24 27 28 30 23 25 26 20 21 23 24 23 22 22 21 20 17 15 14 14 15 16 17 19 20 19 18 17 16 16 14 13 12 12 11 11 11 11 11 10 10 10 10 10 10 11 9
22 25 26 30 30 28 21 27 23 17 18 19 20 20 20 21 20 19 18 17 17 18 19 20 21 21 21 21 20 19 16 16 14 13 13 12 12 11 11 10 10 9 8 8 8 8 8 9 8
22 26 23 24 24 29 25 23 18 14 18 19 20 19 20 20 20 19 19 19 19 20 21 22 23 23 23 22 22 22 20 19 18 15 13 13 13 13 11 11 10 8 7 6 5 5 5 7 7
23 18 24 25 30 33 28 28 25 19 21 20 20 20 20 20 20 20 20 20 21 21 22 22 23 24 25 23 22 22 22 20 19 18 16 14 14 14 13 12 10 9 7 7 7 6 7 10 10
24 26 24 23 27 30 30 27 22 20 19 19 19 20 20 21 21 21 21 21 21 22 23 24 25 26 26 26 25 23 23 23 20 18 17 18 17 16 15 13 11 10 9 9 9 9 10 8 10
26 27 26 31 32 30 31 31 18 16 16 17 18 19 20 20 20 21 21 22 23 23 25 26 26 26 27 28 27 26 25 24 23 21 20 20 20 19 17 16 15 14 13 13 13 14 13 11 9
Wind_Direction
260 266 277 266 264 259 262 272 270 315 308 314 14 19 19 22 47 42 9 43 53 91 89 80 75 70 50 33 19 20 15 9 4 357 352 350 346 343 339 336 332 331 331 329 328 324 323 320 320
260 261 269 267 267 259 273 275 284 296 308 348 358 7 27 18 2 5 13 34 77 88 86 74 47 38 29 28 27 15 7 3 357 350 348 347 345 342 338 337 334 333 330 327 324 321 319 317 315
257 258 262 268 267 265 274 282 277 288 291 3 20 3 7 14 11 6 5 51 84 84 80 55 48 44 43 41 25 11 4 360 353 345 345 346 344 342 341 339 336 333 330 327 324 320 316 313 311
251 260 269 266 265 271 282 288 289 302 309 339 346 359 12 352 5 355 26 61 86 76 67 46 45 48 44 38 29 9 4 357 348 343 344 345 345 344 342 339 336 334 331 328 324 319 315 310 306
252 257 261 264 268 275 275 270 289 304 314 333 1 350 358 5 351 7 48 73 84 76 68 58 44 43 38 31 24 12 1 354 348 348 347 349 347 345 343 341 339 335 331 328 324 320 315 310 304
262 251 259 255 267 278 278 280 299 311 319 333 334 344 356 355 12 31 63 74 77 70 60 47 38 42 34 28 19 6 356 351 350 348 350 350 349 348 347 344 340 337 335 332 328 323 317 312 307
258 259 256 261 268 276 287 295 296 312 315 313 335 336 348 1 21 43 65 70 76 75 71 64 59 41 22 18 12 2 355 352 348 348 353 356 356 353 349 347 346 344 341 337 332 327 323 317 310
260 262 262 259 262 275 294 300 304 305 310 334 317 327 339 1 25 38 56 71 77 75 77 73 60 39 26 21 8 2 355 353 354 360 5 4 360 356 354 353 351 347 345 343 339 336 330 323 315
256 261 261 261 267 279 296 299 301 310 307 324 310 315 328 360 21 37 47 72 79 91 88 83 62 38 28 18 10 3 359 0 8 11 8 5 1 360 358 355 353 351 350 351 349 344 340 335 327
255 263 264 269 274 284 294 299 305 314 309 303 313 329 327 349 19 28 60 75 105 116 104 81 71 28 12 16 10 1 360 2 10 9 7 4 5 3 360 359 359 358 0 4 4 1 351 345 336
264 270 265 273 276 283 289 294 303 309 296 297 307 314 329 344 18 38 84 112 115 111 105 98 57 30 11 12 8 360 357 1 10 8 9 9 8 8 5 6 7 8 12 9 10 12 7 357 345
265 265 273 274 279 285 292 295 297 301 300 296 302 309 320 335 9 33 115 105 85 109 121 103 60 16 7 8 2 354 357 5 5 9 12 13 12 12 10 13 15 18 20 18 18 16 13 12 9
263 270 279 274 279 285 289 287 289 284 298 292 295 299 306 322 343 5 62 58 90 122 123 112 84 24 7 5 354 352 359 3 4 8 15 17 17 16 17 20 25 27 30 28 25 29 37 36 41
273 270 274 278 282 288 285 287 287 303 320 313 296 298 304 310 316 331 19 83 120 143 128 104 69 17 358 353 345 350 358 0 5 10 16 20 21 21 22 26 32 37 40 33 35 46 50 54 56
274 273 276 278 284 284 288 277 283 294 305 298 285 293 295 298 302 316 341 12 148 155 117 107 62 16 358 351 345 347 355 1 7 11 17 23 23 25 27 34 42 50 44 41 47 52 62 70 72
272 272 269 279 281 281 281 280 289 307 304 297 284 290 292 293 291 294 307 332 340 7 127 90 63 25 0 349 340 347 355 1 8 12 18 23 27 30 36 46 57 57 50 56 60 71 76 82 80
269 261 264 272 281 280 273 277 292 305 297 287 282 286 288 288 290 291 295 317 319 310 76 77 78 54 7 353 345 346 352 1 8 12 19 25 32 37 46 56 62 56 46 60 66 81 81 86 89
260 258 265 269 276 276 276 267 277 286 290 287 284 285 292 297 301 300 301 316 329 338 348 29 58 54 30 357 344 347 355 1 6 12 20 30 38 44 53 59 67 63 55 66 67 78 83 78 80
263 264 264 270 280 281 277 272 275 285 296 298 297 293 296 302 306 307 310 324 334 347 358 6 30 38 31 8 349 350 357 3 5 12 21 33 43 49 55 59 64 68 61 69 81 80 80 81 86
259 262 266 278 282 283 281 271 283 295 306 314 307 304 301 303 308 312 315 324 334 353 359 351 360 14 12 1 357 355 2 4 7 12 23 34 46 52 55 60 65 71 66 61 76 82 87 93 84
255 259 266 272 281 285 283 278 285 296 310 314 312 312 311 309 307 310 315 322 340 355 4 2 356 355 351 349 354 359 4 5 12 13 22 33 46 54 55 56 71 72 75 68 80 80 84 71 68
256 264 267 273 278 277 286 279 281 288 290 310 307 309 310 312 314 317 319 326 336 350 359 356 351 348 346 350 352 353 357 2 10 14 20 32 45 52 48 54 75 70 78 80 77 84 81 87 55
262 270 271 274 275 279 280 279 282 292 286 297 306 307 309 312 313 315 322 327 332 337 342 344 342 339 340 342 347 345 349 1 7 13 21 29 42 49 48 51 66 76 76 81 91 85 96 86 63
267 270 276 277 276 273 274 275 281 284 287 295 305 309 311 311 315 318 321 327 333 329 327 330 330 330 337 340 346 344 345 353 3 12 19 23 32 41 44 47 57 73 80 85 92 87 102 78 43
263 261 267 269 268 271 280 275 280 292 300 302 305 309 312 313 318 319 321 319 320 320 322 323 324 324 326 331 337 343 346 350 357 5 12 16 19 26 34 41 44 59 76 85 94 94 89 106 65
256 260 265 266 267 272 281 275 284 299 301 309 314 315 317 316 318 322 321 319 317 315 315 316 316 320 323 322 327 336 341 345 349 355 358 2 4 9 18 22 27 39 62 78 84 75 76 83 86
261 260 272 273 279 276 278 284 291 302 303 303 312 319 321 319 318 322 320 319 318 318 318 318 316 316 318 320 323 324 328 330 333 341 348 351 352 352 360 0 3 13 21 48 65 37 43 20 40
266 265 267 269 269 271 277 277 281 282 293 298 305 314 318 322 323 323 323 321 321 321 321 322 321 318 316 319 322 325 323 325 326 328 329 334 338 340 343 349 354 355 353 351 358 2 355 339 344
262 263 270 273 272 272 274 277 288 286 292 297 302 310 315 319 322 323 324 323 323 321 321 320 320 318 316 315 318 322 322 321 324 326 327 322 325 328 331 336 339 335 336 333 327 331 335 341 335
265 266 263 266 269 272 276 276 296 297 300 303 310 312 317 322 324 326 328 328 327 326 323 321 321 321 317 313 313 316 319 320 321 320 320 316 312 316 319 323 320 320 317 315 312 310 315 322 325